NOAA 16 DEB, 42390

Orbit data source: Space-Track

NOAA 16 DEB, 42390 is space debris in SSO originally from a launch on Thu, 21 Sep 2000 UTC launched from the Air Force Western Test Range (AFWTR). Debris objects in space refer to the collection of defunct objects orbiting the Earth. Examples of debris include non-operational satellites, rocket bodies, and fragments generated from explosions, collisions, or faulty payload assembly.

Loading next visibility...
Identifier
42390, 2000-055SJ
Orbit
SSO
Country
Flag of USUS
Related business
Manufacturer
Unknown
Mission
Spacecraft
Bus & Motor
Unknown
Mass
Unknown
Launch date (UTC)
2000-09-21 (25 years ago)
Launch vehicle
Unknown
Launch site
Air Force Western Test Range (AFWTR)
Object type
Payload
Rocket body
Debris
Shape & HBR
Unknown shape, 0.1 m
Radar Cross Section
Small (<0.1 m²)

Expand to show TLE details & history
Last TLE update: 17 hours ago

TLE from 17 hours ago
0 NOAA 16 DEB
1 42390U 00055SJ  25307.64718487  .00003226  00000-0  13170-2 0  9997
2 42390  98.6387  19.5066 0016342 121.8746 238.4028 14.27954675502175
Epoch: 2025-11-03T15:31Z
TLE epoch observation values (Epoch: 2025-11-03T15:31:56.772Z)
Latitude
-0.00003°
Longitude
103.37449°
Altitude
807.663 km
Speed
7.446 km/s
True Right ascension
01h 18m 01s
True Declination
0° 00' 00"
Sunlit
Object was in full shadow at epoch
Visualization orbit readout
Latitude
Unknown
Longitude
Unknown
Altitude
Unknown
Speed
Unknown
Apparent Right ascension
Unknown
Apparent Declination
Unknown
Sunlit
N/A
Visualization observer readout
Local Sidereal Time
04:30:55
Azimuth
Unknown
Elevation
Unknown
Doppler factor
Unknown
Orbital elements
Apogee altitude
807.444 km
Perigee altitude
783.997 km
Semi-major axis
7,173.857 km
Eccentricity
0.00163
Inclination
98.6387°
RAAN
19.5066°
Arg. of periapsis
121.8746°
True anomaly
238.24347°
Mean anomaly
238.4028°
Eccentric anomaly
238.32312°
Mean motion
3.57202 °/min
Orbital period
100.78 mins
BSTAR
0.001317
Loading maneuver chart data...
Computing Atmospheric mass density...
Loading historical data...
Loading historical data...
Loading historical data...
Loading historical data...
Loading historical data...
Loading historical data...
Loading historical data...

Documentation

Showing up to 5 results
|